Theta_e
317 317 317 318 318 319 320 321 321 322 322 322 324 324 325 326 327 328 328 328 329 329 330 331 331 332 332 332 333 333 332 329 326 323 320 323 329 333 334 338 339 339 334 325 321 319 316 318 318 321 319 316 315 311 311 315 313 308 303 297 296 297 301 306 306 305 304 300 301 302 302 302 301 303 306 306 304 301 305 308 310 320 320 321 323 325 329 329
315 317 317 317 318 319 319 319 321 321 322 322 323 324 324 325 326 328 328 328 328 329 329 330 331 332 332 332 333 332 330 327 322 322 321 329 332 333 334 336 337 338 333 323 319 318 316 315 317 320 316 312 316 311 315 311 314 306 299 299 297 298 303 309 309 306 301 300 300 301 301 302 303 302 305 302 301 301 303 304 311 315 319 322 324 326 327 327
315 316 317 316 317 318 319 319 320 320 321 322 322 323 324 325 326 328 328 328 329 329 329 330 330 331 331 332 332 331 329 323 322 317 324 334 333 334 335 337 336 337 326 323 321 320 318 318 319 318 315 312 310 309 312 309 313 306 303 298 297 302 305 307 304 304 301 301 301 301 302 301 303 303 305 302 299 300 301 304 307 312 315 318 320 324 324 325
314 316 316 316 317 318 318 318 319 319 321 321 322 323 323 325 325 327 328 327 328 328 328 329 330 331 330 331 331 329 325 318 312 320 327 335 335 335 336 336 337 335 325 325 323 324 324 323 319 318 313 311 307 311 308 309 308 305 304 299 301 304 305 307 305 303 303 301 300 300 300 302 303 303 302 299 300 299 300 304 309 309 317 319 321 323 323 323
314 316 316 316 316 317 318 317 318 319 320 321 322 321 322 324 325 325 327 328 328 327 327 329 329 330 330 330 330 329 318 307 309 321 326 336 336 335 336 336 336 330 327 325 324 323 322 319 319 314 313 307 308 307 305 307 309 306 305 305 304 305 306 306 305 304 303 301 300 300 300 301 303 304 301 300 298 295 300 304 307 312 321 321 321 322 323 322
314 315 315 315 315 317 317 317 318 319 319 320 321 321 322 322 324 324 327 328 328 327 326 328 328 327 330 329 327 325 310 292 317 319 331 335 336 337 336 336 336 330 327 324 320 318 317 314 313 309 308 308 307 306 305 307 311 302 304 304 306 306 306 307 305 303 304 304 302 302 304 303 302 302 301 300 298 300 301 303 306 310 323 324 324 323 322 322
314 314 315 315 315 316 316 316 317 318 319 319 321 321 321 322 323 323 324 326 328 327 326 328 328 328 328 328 321 320 309 307 318 321 332 336 336 336 336 335 335 327 325 320 318 315 314 312 311 307 307 306 306 305 308 309 309 306 303 303 306 307 308 307 304 304 301 303 303 303 304 303 301 301 303 301 301 301 303 304 305 310 322 324 322 322 322 322
314 314 314 315 316 316 316 316 317 318 318 319 320 321 321 321 322 322 323 323 325 327 327 328 328 325 327 321 314 309 310 309 317 324 330 335 335 334 334 330 329 325 322 319 317 314 314 311 310 309 307 305 305 308 308 308 306 304 304 304 305 306 307 307 304 301 302 303 302 305 304 303 302 302 302 301 302 302 303 304 311 312 321 322 322 322 322 322
312 313 314 314 315 315 315 316 317 317 317 318 320 320 321 321 322 322 322 323 323 326 326 326 326 327 327 320 312 306 304 318 326 324 328 331 331 332 331 326 327 323 321 320 319 316 314 308 309 310 304 306 309 308 308 307 303 305 306 304 305 307 306 306 302 302 303 304 303 304 301 301 302 304 302 304 303 303 303 305 312 315 319 320 321 322 321 322
312 313 313 314 315 315 316 316 316 317 317 317 319 320 320 321 322 322 322 323 323 324 326 325 325 324 321 313 309 300 314 321 323 323 324 330 331 330 328 328 326 323 320 318 319 317 312 309 312 312 312 308 310 308 307 307 303 306 306 305 306 305 305 305 303 303 302 305 303 304 302 303 305 304 300 304 306 305 303 304 310 314 316 319 320 321 321 321
313 312 312 312 314 315 316 316 316 316 317 317 319 320 320 320 321 322 322 323 323 323 325 325 324 322 315 314 305 298 317 320 322 322 322 330 329 327 325 327 326 322 321 317 318 321 318 316 313 313 311 306 309 305 306 307 309 308 308 308 306 305 305 305 303 302 303 304 302 305 303 302 303 303 302 305 307 306 306 302 304 311 313 315 318 320 321 321
313 313 312 312 312 315 316 316 316 316 316 317 319 319 320 319 320 322 322 322 323 324 325 325 324 320 317 311 306 304 316 323 322 322 322 327 327 328 328 328 326 323 321 316 317 320 321 319 315 312 303 309 304 306 306 307 308 308 308 305 303 304 306 304 303 303 302 303 303 304 304 301 302 300 301 304 305 306 306 304 303 305 311 313 315 318 318 319
313 313 313 312 312 313 316 316 316 316 316 318 319 319 319 319 320 320 320 320 321 323 324 324 322 317 313 303 308 315 317 319 321 321 323 325 327 329 329 329 327 326 323 319 317 320 322 321 316 311 309 308 303 301 305 309 306 306 306 303 303 303 301 305 304 303 302 304 303 305 295 294 301 304 304 305 307 307 306 305 304 303 304 308 311 314 316 317
311 313 313 313 312 312 314 316 316 316 316 316 319 318 318 319 319 320 321 321 322 323 323 323 322 317 311 305 314 318 319 318 319 318 321 325 325 324 327 329 329 328 326 322 321 320 321 320 316 312 312 308 305 309 307 303 304 301 302 303 297 296 295 302 305 302 302 304 304 306 296 295 300 303 306 307 305 306 307 308 306 304 303 303 304 308 312 315
311 312 312 313 313 312 313 315 315 315 315 315 316 319 319 319 319 319 319 319 321 322 320 323 320 313 305 307 315 318 324 320 315 315 320 324 323 321 323 326 325 325 325 324 323 323 321 318 315 310 306 310 310 306 299 299 298 300 297 295 294 297 294 301 303 303 302 303 304 304 296 299 302 304 306 307 307 306 306 308 307 306 304 303 303 303 305 309
311 312 312 312 313 312 312 313 315 315 315 315 314 316 318 318 319 319 320 318 319 320 320 314 313 312 304 302 309 322 316 311 311 316 319 323 323 320 323 323 325 325 325 323 327 323 320 318 311 308 308 308 305 299 296 293 296 297 297 289 292 293 296 299 303 302 306 303 303 304 295 294 299 304 306 307 306 306 306 307 307 306 306 304 303 303 303 304
311 312 312 312 312 312 312 312 313 315 315 315 315 314 318 317 317 317 317 317 317 318 313 308 310 309 299 310 312 309 307 312 315 314 314 320 322 318 323 321 320 321 322 319 321 320 317 315 311 309 308 305 301 301 294 293 292 294 294 294 291 294 293 296 299 303 302 303 299 301 299 297 299 299 303 304 305 305 304 305 306 306 306 306 305 304 303 303
311 311 311 312 312 312 311 312 312 313 313 315 314 315 312 314 315 314 314 313 311 311 312 313 310 303 300 309 301 302 311 312 312 314 314 319 323 320 320 319 318 318 317 314 315 314 313 309 310 303 302 303 302 299 294 289 292 292 291 291 293 293 295 296 297 299 302 301 300 299 299 300 303 305 304 304 302 304 305 306 307 307 307 306 306 306 305 304
310 311 311 311 312 312 312 311 311 312 313 312 313 315 314 314 311 312 308 309 305 299 296 298 300 290 290 301 308 307 308 314 316 314 311 316 316 319 315 313 316 314 309 309 307 311 310 306 307 302 298 299 299 300 298 296 296 294 294 295 293 293 294 293 298 300 304 300 299 299 298 299 301 303 305 306 306 303 304 303 303 305 306 307 307 306 306 306
309 311 311 311 311 311 311 311 312 312 311 310 309 307 305 299 297 297 305 305 300 300 302 304 305 303 302 302 304 308 315 317 309 310 313 317 317 314 312 312 306 313 308 302 305 308 309 300 296 297 300 301 302 302 302 298 298 298 295 294 294 294 294 296 298 301 301 300 299 300 300 300 301 303 305 306 307 305 304 303 302 303 304 306 306 307 307 306
308 310 311 311 312 312 311 312 312 311 311 308 306 302 294 295 290 288 297 300 304 304 300 303 305 303 301 305 306 309 306 307 310 309 312 319 316 313 308 309 303 301 305 307 303 308 307 297 297 301 303 304 304 304 304 302 299 295 295 294 293 293 293 297 298 301 301 300 296 299 299 299 301 303 305 306 305 304 305 305 303 302 303 304 305 306 306 307
308 309 310 311 311 311 312 312 312 311 311 307 304 300 299 299 300 304 298 290 296 300 301 302 304 302 306 306 310 310 307 304 306 307 313 317 310 306 304 305 301 298 306 304 303 299 297 294 298 303 305 306 306 304 304 302 300 297 293 292 291 293 295 296 298 300 302 299 298 296 297 299 300 302 305 304 304 305 306 306 307 305 304 304 304 304 305 305
310 309 309 310 311 311 311 312 310 311 306 303 300 301 297 301 304 304 300 294 292 297 299 300 299 300 301 304 306 309 303 301 300 306 309 313 306 305 305 302 299 301 302 303 297 296 293 295 299 303 304 303 303 303 303 301 301 299 297 292 290 291 292 288 296 298 297 298 293 295 297 299 301 303 303 305 304 304 306 306 306 306 306 306 306 305 305 305
311 310 309 310 310 310 310 309 310 306 302 302 302 301 303 303 303 303 297 287 286 294 297 299 300 300 300 301 307 303 300 302 303 302 312 310 303 305 303 302 300 299 298 299 299 297 294 299 303 302 301 301 299 302 301 300 297 299 298 296 294 291 294 294 291 295 298 298 297 294 292 294 296 298 299 303 301 301 302 303 303 304 304 306 306 305 305 306
310 311 310 309 309 309 309 310 303 301 303 303 301 304 304 304 304 304 295 290 290 287 297 297 299 299 301 308 306 301 301 302 302 308 312 311 305 303 300 304 301 296 298 301 300 298 297 302 304 300 299 299 299 298 300 299 296 297 299 299 298 296 293 292 293 293 291 292 295 294 285 290 294 296 299 302 302 298 299 300 301 302 302 301 301 303 304 303
310 311 310 309 309 309 310 303 301 302 302 299 301 304 303 303 303 302 294 281 277 286 294 288 301 294 308 299 303 303 304 296 305 307 312 312 312 305 302 300 302 294 299 300 298 299 299 303 302 298 297 297 298 297 300 301 297 295 296 301 300 297 295 294 292 292 287 286 290 295 289 285 288 293 296 299 301 301 298 299 301 302 302 301 301 302 303 303
310 311 310 310 310 309 302 295 304 303 297 298 302 306 302 303 303 300 289 279 276 290 286 295 295 292 302 300 302 302 287 291 306 309 310 313 307 310 299 296 300 299 301 299 298 292 301 301 301 300 297 296 296 295 299 301 297 294 302 300 300 298 296 294 294 292 287 289 290 292 293 288 288 291 295 298 298 299 299 299 299 301 301 302 303 303 303 304
310 311 311 311 310 309 300 302 302 299 298 300 305 305 303 303 303 299 284 271 270 294 285 293 294 302 300 302 303 295 298 304 294 302 311 311 310 305 300 296 296 296 299 298 286 300 301 298 299 298 297 296 295 298 300 302 298 297 301 301 300 300 298 296 294 292 290 289 286 289 291 287 287 291 295 296 294 297 298 299 300 300 301 302 303 304 304 304
310 310 311 311 311 310 305 301 301 298 302 303 305 304 303 300 297 288 278 270 284 285 299 292 306 298 297 301 297 297 297 299 293 305 310 310 311 305 297 299 299 298 299 298 292 297 298 301 301 300 298 295 299 301 301 302 297 301 300 302 302 300 299 297 293 292 286 287 285 290 291 286 287 288 293 294 295 295 298 300 301 301 302 302 303 303 304 305
310 310 311 311 308 306 303 300 298 299 301 305 304 302 301 297 288 281 275 266 289 274 292 295 294 290 299 294 294 296 293 295 298 304 308 304 305 306 302 306 299 297 295 298 297 297 299 300 303 301 298 300 301 302 303 302 302 301 301 298 295 295 295 296 295 291 286 284 287 292 292 290 284 289 292 291 293 298 299 300 301 301 301 301 301 302 303 303
310 310 310 311 302 304 303 298 300 300 304 304 302 301 297 291 280 275 269 275 285 282 295 290 287 298 293 291 289 294 293 294 295 301 297 303 300 303 302 297 302 296 295 294 294 297 298 299 299 298 302 303 303 300 303 304 302 300 296 296 293 288 289 287 286 288 284 282 289 293 292 292 283 286 291 296 297 298 300 299 299 299 299 300 300 301 301 302
310 310 311 308 305 306 299 297 302 304 305 304 302 296 291 277 280 272 271 289 275 280 284 286 291 292 292 294 292 292 290 292 295 297 295 295 295 295 295 289 294 285 285 288 287 295 293 295 298 300 302 301 299 298 297 300 299 298 295 295 288 283 286 282 286 281 281 283 290 293 292 286 287 292 288 292 293 297 300 301 301 301 301 301 302 304 305 304
309 310 311 309 307 302 302 304 304 304 303 304 299 295 283 276 269 277 278 274 272 282 281 290 288 290 291 291 289 292 294 288 296 297 297 296 294 296 298 296 297 292 284 290 289 289 290 297 297 297 299 302 301 294 292 291 295 295 292 291 287 282 281 280 283 285 286 288 292 289 291 287 291 294 298 293 293 295 297 300 302 302 303 303 303 303 303 297
309 309 305 306 305 305 303 305 304 303 301 300 294 286 280 273 272 285 279 276 274 286 287 286 288 290 290 286 288 292 287 292 293 293 295 291 293 290 294 297 297 294 287 290 287 288 284 285 291 296 291 301 299 298 297 295 295 295 297 295 290 288 284 279 282 280 282 285 289 289 287 282 287 289 297 301 299 296 297 299 300 300 301 302 301 297 295 296
308 306 305 305 305 304 303 304 303 303 300 296 288 282 274 272 276 274 276 278 276 281 283 283 288 288 286 288 290 292 292 287 293 292 292 291 288 290 290 292 296 297 290 286 288 289 287 288 296 301 300 302 298 301 302 298 293 296 297 297 291 288 292 285 286 286 285 281 281 283 286 289 292 296 294 294 301 302 296 296 296 297 298 297 297 298 299 299
305 303 305 302 302 303 304 305 304 302 297 292 283 278 275 278 273 275 275 283 280 279 280 283 282 284 285 285 288 288 293 287 290 291 290 291 292 290 293 294 294 297 291 286 290 285 288 286 296 299 302 300 300 302 300 302 287 293 295 288 292 300 296 287 287 284 284 283 283 287 287 289 293 297 297 295 293 298 299 297 296 296 297 296 297 298 298 299
300 303 297 302 302 304 304 305 304 300 295 289 281 276 280 279 278 280 287 282 281 282 280 274 278 283 282 281 283 286 288 289 288 289 285 293 289 292 292 293 298 297 297 294 288 288 286 287 296 295 294 301 303 302 301 302 300 296 289 294 298 299 295 289 283 284 283 281 282 289 285 286 287 285 298 294 291 295 298 298 299 299 298 297 297 298 299 299
300 300 300 299 302 304 305 305 302 298 292 285 279 282 281 279 285 284 285 286 284 283 280 277 275 286 282 283 283 285 288 286 286 288 284 290 283 296 292 291 296 297 298 299 292 288 290 282 287 294 296 299 301 300 297 301 295 295 293 302 293 285 285 286 284 280 279 279 282 286 287 288 289 289 287 292 292 293 295 298 299 299 300 299 299 299 300 301
300 298 291 298 304 305 304 304 300 294 287 281 279 279 279 279 284 285 286 287 285 281 279 279 277 279 284 282 284 286 288 282 288 286 284 287 283 293 292 294 291 297 298 297 291 288 289 284 285 293 295 296 297 296 286 293 298 297 299 295 297 294 290 287 287 287 288 281 283 282 286 283 291 292 295 291 295 295 294 294 297 299 301 302 302 301 301 301
296 291 290 301 303 304 303 301 295 291 285 278 280 280 284 277 282 286 287 290 284 282 278 279 281 277 282 282 285 283 287 288 287 286 287 288 287 294 292 296 292 294 297 297 293 294 286 289 283 288 293 296 289 293 290 294 289 291 292 290 292 290 291 292 291 289 285 283 284 282 282 284 292 296 296 294 293 294 295 295 297 298 300 301 303 303 302 301
299 292 290 301 302 303 302 297 288 284 282 283 282 280 279 278 282 286 287 289 288 288 285 281 281 279 279 282 282 286 284 285 286 286 286 286 288 284 292 295 295 294 297 295 294 294 286 286 284 286 287 288 291 298 296 296 296 294 293 291 293 291 287 284 282 290 287 286 281 283 281 288 291 297 296 295 294 294 296 297 297 298 299 300 301 301 300 300
292 284 287 301 302 302 297 285 285 287 283 281 280 282 278 289 282 281 286 287 288 285 286 278 279 279 281 283 285 285 285 284 285 285 287 285 289 289 290 297 296 297 295 291 292 297 294 288 287 285 287 289 294 297 297 298 299 297 296 293 296 295 292 288 282 285 287 288 288 284 283 286 293 295 296 297 295 295 297 297 297 298 298 299 300 300 300 298
289 285 298 301 303 301 292 285 287 285 283 284 286 284 286 285 283 282 284 286 285 286 285 285 281 281 282 282 284 285 287 283 285 284 287 287 288 292 291 296 297 296 297 293 296 296 295 287 284 286 288 290 295 292 291 291 296 295 296 296 295 291 292 290 290 289 287 287 287 285 284 287 296 292 294 295 296 294 296 297 297 298 298 299 299 298 297 296
288 288 292 300 303 299 289 280 281 283 284 282 284 283 286 284 281 280 283 286 285 284 285 283 283 284 280 283 284 284 288 281 286 286 285 287 285 293 293 295 297 294 295 292 291 296 289 287 288 283 283 285 287 289 288 289 291 292 292 295 295 295 295 292 287 282 286 287 288 285 280 287 297 293 290 290 290 291 292 292 294 296 297 298 298 298 296 297
289 289 288 288 295 296 285 286 284 283 284 283 283 281 282 283 284 286 285 284 287 284 284 282 285 283 283 282 281 284 287 286 282 287 287 286 287 290 288 291 296 294 297 297 298 300 291 289 287 280 277 276 276 278 281 284 286 290 294 294 295 294 292 290 286 286 283 287 288 285 285 293 297 293 293 291 290 290 291 293 293 296 298 298 297 297 297 298
284 280 285 285 286 291 289 287 288 285 283 283 281 282 282 281 283 285 286 283 286 285 287 283 284 286 283 283 280 281 284 286 284 281 284 284 285 289 290 288 290 293 296 298 297 297 287 290 290 287 285 283 285 288 291 293 289 287 290 292 293 294 294 293 291 288 284 287 287 288 289 288 292 295 293 291 290 292 293 292 291 293 294 296 296 297 297 299
287 282 282 281 285 285 287 288 284 285 283 285 278 281 280 282 283 283 288 283 286 286 284 285 283 283 280 284 282 280 283 284 286 285 284 284 286 287 287 288 290 291 293 294 296 294 282 286 289 289 288 289 291 289 287 291 287 290 291 291 293 293 293 291 288 285 292 288 284 290 290 288 291 294 295 291 290 291 293 294 293 293 294 295 296 297 297 298
284 285 283 286 283 281 283 284 287 283 282 284 281 281 281 281 282 281 285 287 284 286 284 279 283 286 285 284 283 279 279 281 284 283 286 285 285 286 286 289 289 292 292 292 296 293 286 284 288 289 288 290 291 291 291 290 290 290 291 292 291 293 292 289 289 291 292 287 285 291 292 290 293 295 297 293 293 293 293 293 295 296 295 295 295 296 297 298
288 285 285 288 282 279 286 287 288 286 284 284 282 282 278 280 281 284 283 282 284 284 286 280 282 285 285 285 284 281 281 274 278 284 283 283 285 285 283 284 289 291 291 289 293 289 287 286 288 289 287 289 290 290 291 290 289 290 290 291 293 293 292 292 291 292 291 290 292 292 291 292 294 296 297 297 294 293 291 292 293 294 294 295 296 296 297 298
284 284 284 286 284 282 284 287 287 286 283 286 281 282 282 281 281 283 283 284 281 284 284 283 284 284 285 285 285 282 283 284 283 281 284 285 282 285 284 285 285 288 291 287 287 288 287 285 291 288 286 286 288 290 290 290 289 287 289 290 291 292 292 293 293 293 292 292 293 292 291 290 295 298 298 296 294 293 292 292 294 295 295 295 296 297 298 299
285 287 287 284 283 282 283 283 285 285 283 285 283 283 283 283 282 284 284 287 285 282 284 284 285 284 283 285 285 285 287 286 286 286 287 287 283 287 286 284 290 285 287 286 287 286 287 284 289 288 284 284 288 287 288 289 288 287 287 288 289 289 287 291 291 293 292 289 291 291 289 290 295 297 296 294 293 294 295 294 293 293 296 296 296 297 298 299
287 290 291 286 282 288 284 285 285 284 281 285 285 285 285 284 284 285 283 288 288 289 287 287 287 285 283 283 284 286 289 289 289 289 289 290 291 291 291 290 291 288 285 286 287 285 285 284 284 286 282 282 287 288 286 287 285 283 284 288 289 289 291 292 293 294 294 294 290 288 289 295 297 298 296 294 294 294 295 296 296 295 296 297 298 298 299 299
Wind_Speed
19 19 20 19 18 19 19 18 17 17 17 17 17 16 15 13 13 12 13 12 11 10 8 10 10 10 9 8 8 6 6 5 4 6 8 11 5 8 10 7 1 2 7 5 7 6 6 6 8 11 8 3 1 0 2 0 1 2 1 3 1 3 1 2 1 1 1 2 3 1 1 5 2 0 0 2 5 3 2 4 2 4 5 1 2 5 11 12
20 18 19 20 19 19 19 19 18 17 17 17 18 17 15 14 13 13 12 12 11 11 11 9 11 10 9 8 8 7 6 6 11 10 16 4 11 9 9 13 11 7 5 4 4 3 3 6 6 9 5 2 1 1 0 1 1 2 1 1 6 3 3 2 2 2 1 3 4 3 1 3 4 5 1 3 0 3 3 2 3 4 4 5 6 9 12 10
20 18 19 20 18 18 19 19 18 18 17 17 18 17 15 13 13 12 12 11 11 11 10 9 9 9 9 8 8 7 5 6 9 18 14 16 14 11 13 12 10 6 2 3 0 2 1 2 4 4 3 1 1 2 1 2 1 2 3 3 4 5 3 4 1 1 2 2 3 1 1 1 1 2 0 2 4 1 6 4 1 2 2 4 5 8 9 10
20 17 18 20 18 18 19 20 18 18 17 17 17 17 16 12 13 14 12 11 11 10 9 10 9 8 8 8 8 5 2 5 12 5 7 17 16 17 14 14 10 4 2 1 2 0 0 0 1 0 2 0 3 0 1 3 2 2 2 4 3 4 1 2 1 2 2 3 3 2 0 2 1 2 2 3 5 3 4 5 9 10 9 9 8 10 9 10
18 17 17 18 20 18 19 20 18 18 18 17 17 18 14 13 13 15 12 11 11 12 10 10 10 9 9 8 9 6 3 1 6 9 10 16 20 20 19 15 12 5 3 2 1 1 2 1 1 1 1 2 1 1 2 2 2 2 6 5 5 1 2 6 4 2 1 2 5 1 3 2 0 1 2 7 5 5 7 7 8 8 13 13 12 11 9 11
18 17 17 18 19 17 18 19 19 18 18 17 16 16 15 15 11 12 13 11 11 11 11 10 11 10 10 10 7 6 6 12 0 2 6 20 22 21 20 18 14 6 4 1 1 1 2 3 1 0 0 1 2 4 3 3 1 4 2 2 5 4 4 2 1 4 2 1 1 0 1 1 1 1 2 6 6 2 6 5 9 7 14 15 13 12 11 12
18 17 17 19 18 15 15 17 17 18 18 17 16 16 16 13 11 11 14 13 12 12 11 11 12 11 11 10 2 7 12 7 1 5 3 9 19 22 22 18 11 6 5 3 2 1 0 1 1 2 0 0 3 2 6 0 0 4 6 1 5 5 7 5 3 2 1 7 2 2 1 1 0 2 0 2 4 5 2 1 3 8 8 8 11 13 16 16
19 18 17 17 14 14 15 18 14 16 19 18 16 17 17 16 12 12 11 13 13 12 12 14 13 12 13 6 5 8 11 13 10 3 7 5 13 15 13 7 9 6 7 8 6 4 2 2 4 1 2 4 3 5 1 1 1 4 5 3 4 3 5 5 5 4 4 4 2 2 2 2 3 1 0 3 6 4 3 1 1 7 10 9 11 13 12 12
19 18 17 18 15 15 16 17 14 15 18 18 16 16 16 16 13 12 12 12 15 12 12 11 14 15 12 6 5 8 16 8 4 5 6 7 5 10 13 7 8 10 6 6 6 6 5 4 3 4 3 3 2 1 3 2 6 4 8 2 1 2 4 3 3 5 6 2 3 3 4 3 5 1 2 6 5 6 3 2 2 9 10 11 12 13 12 12
17 17 18 18 16 16 16 15 14 14 18 19 15 14 16 16 13 11 12 13 14 14 13 13 15 14 10 5 5 12 3 10 10 10 4 7 8 11 12 8 10 8 7 6 4 5 6 4 7 4 1 3 1 4 0 3 4 2 2 1 2 4 4 1 5 6 6 4 5 5 3 4 1 3 7 2 8 1 3 4 3 9 11 12 10 11 11 12
14 15 15 18 17 15 16 15 14 16 17 17 14 15 16 16 14 13 12 13 13 15 11 14 15 14 9 6 11 15 1 5 6 7 8 8 7 8 11 9 12 9 7 4 6 7 4 5 3 2 0 3 2 3 0 3 0 4 2 1 3 5 3 3 1 5 1 2 4 5 6 2 2 1 7 3 2 4 5 5 5 5 9 11 12 12 11 11
15 14 14 17 19 16 14 15 16 17 18 18 15 15 16 15 14 11 11 12 14 13 12 12 16 8 5 8 12 9 3 2 2 6 6 8 7 9 7 8 8 9 11 7 7 7 7 4 3 2 5 0 3 2 5 1 1 3 0 5 5 3 4 2 4 4 4 4 5 4 0 2 2 6 4 6 4 2 2 5 7 7 8 10 10 11 9 13
15 14 15 16 18 18 14 15 17 18 18 17 15 14 13 14 13 12 12 12 15 13 13 11 10 3 4 13 13 5 3 1 2 4 1 5 4 8 10 10 12 10 12 10 8 9 9 6 3 3 2 1 1 3 1 1 1 0 1 2 5 7 6 8 2 2 5 3 8 5 6 5 10 10 5 6 6 6 4 6 5 7 8 8 8 9 10 10
14 14 14 14 14 17 14 13 13 12 12 15 15 14 12 12 13 12 14 14 11 12 13 15 8 10 11 8 1 6 8 2 3 5 1 4 8 6 10 9 9 6 4 7 5 5 7 5 3 2 0 2 3 4 4 4 2 3 3 2 5 4 5 3 6 5 8 2 10 6 9 6 7 9 8 7 5 6 9 10 6 6 7 6 7 8 10 12
12 11 12 12 13 14 17 15 14 14 12 12 15 13 13 14 13 13 14 14 11 10 13 10 8 7 10 3 3 7 15 3 2 2 1 5 7 3 9 10 12 12 11 7 1 2 4 5 2 1 3 1 1 4 5 1 3 0 1 9 2 9 3 4 4 10 10 1 5 6 8 9 9 9 8 8 6 5 9 10 7 7 7 8 8 9 10 11
9 10 11 11 11 12 15 16 14 15 15 13 15 14 10 9 11 12 12 8 9 10 5 9 8 6 1 4 3 5 3 12 13 6 3 2 6 7 9 11 8 10 10 4 4 4 4 5 4 2 2 0 4 3 2 3 3 2 8 3 6 6 5 1 4 7 11 4 2 10 6 3 7 10 8 7 6 7 10 11 8 8 9 9 9 9 9 9
8 8 9 9 9 10 11 16 14 15 15 17 17 15 10 13 13 10 7 7 4 2 2 2 4 2 7 1 3 6 4 9 6 4 6 3 3 2 8 9 9 10 5 5 4 5 2 3 1 2 0 5 3 5 3 8 8 8 3 7 3 6 4 8 2 4 6 5 5 5 6 6 6 4 5 5 6 6 6 9 9 8 8 9 9 9 10 10
5 6 6 8 9 8 9 8 9 12 13 15 11 5 5 7 1 8 2 4 4 3 3 0 1 5 10 5 4 6 5 6 10 10 12 2 6 5 5 9 3 9 10 5 1 8 2 3 3 7 2 7 4 8 13 18 16 10 6 5 7 4 7 7 8 4 5 4 6 6 10 9 12 10 6 5 4 6 10 11 11 10 10 11 10 10 10 10
5 4 5 6 7 8 10 8 7 8 6 6 9 14 12 9 4 2 3 3 4 4 5 7 9 13 3 11 13 0 4 7 8 14 9 7 1 3 4 4 4 13 9 11 4 14 2 2 4 7 14 10 13 15 18 10 5 11 13 11 4 8 7 5 3 2 11 7 8 9 10 9 13 15 10 9 7 7 9 7 5 7 8 10 10 10 9 9
7 5 5 6 6 7 9 10 10 9 7 9 7 5 2 4 2 2 3 5 8 7 3 6 12 3 3 4 5 2 2 10 8 8 10 5 9 4 4 1 3 11 11 15 10 15 12 11 10 14 12 16 18 18 15 4 6 9 5 6 11 9 5 3 5 4 4 4 11 12 12 11 14 17 15 13 10 8 8 9 8 7 7 9 10 11 11 10
10 6 5 6 7 7 9 10 9 7 12 4 6 7 5 8 8 7 5 3 5 8 5 3 5 11 2 2 1 6 7 3 3 5 8 6 7 11 5 6 4 9 13 9 9 2 13 14 14 11 13 10 14 13 13 10 5 4 7 9 11 8 12 4 4 5 3 5 5 7 9 12 13 15 14 11 9 12 12 13 10 9 9 8 9 11 11 11
10 7 6 7 8 7 8 9 10 7 12 3 5 4 0 3 1 0 4 3 4 4 6 6 2 7 6 3 2 2 3 5 8 5 3 12 6 13 3 7 7 11 13 9 7 7 13 18 21 18 10 5 6 12 15 16 14 5 5 6 7 10 4 3 5 4 4 3 11 4 9 11 12 14 16 13 13 12 13 13 13 12 12 10 9 9 10 7
7 7 7 7 7 7 5 8 9 15 6 6 5 4 0 1 2 1 2 2 3 4 9 9 7 8 7 4 1 3 2 8 11 10 11 10 9 14 7 9 8 9 8 16 14 13 15 16 24 21 18 12 8 7 11 14 13 12 10 7 10 3 7 6 4 1 4 7 3 6 14 13 11 12 16 15 11 10 11 13 13 12 12 13 13 11 10 11
9 8 8 7 7 6 6 7 9 9 4 8 8 5 3 1 1 5 2 3 1 2 6 9 10 9 9 6 2 3 2 2 4 12 6 10 12 8 8 11 13 10 13 9 19 17 18 16 22 17 16 17 15 11 12 12 13 14 13 10 10 4 7 8 3 4 6 8 4 1 8 9 8 10 9 13 7 7 10 10 11 10 9 10 9 8 10 13
11 10 9 7 6 8 8 14 5 3 4 5 3 5 0 3 4 1 3 1 2 5 1 2 3 4 5 3 1 2 3 1 3 4 8 10 10 6 10 4 6 13 12 12 11 14 17 13 7 16 18 18 17 14 13 11 12 13 14 15 13 7 4 4 5 3 1 9 7 5 6 15 9 13 17 12 9 11 9 11 14 14 12 9 10 13 12 11
13 12 10 10 11 11 10 7 3 4 8 6 3 4 2 3 4 5 4 1 5 3 2 7 5 10 7 5 5 3 3 11 9 6 8 8 9 11 5 10 5 15 17 13 12 5 12 11 13 17 19 17 19 17 18 15 13 11 10 14 13 7 9 8 6 5 9 10 4 6 13 13 3 12 14 13 16 18 6 13 15 14 12 10 11 11 12 12
14 14 13 14 13 14 7 3 3 8 7 3 3 5 4 5 4 6 3 2 6 5 7 1 7 3 7 8 11 6 10 7 4 7 10 5 12 1 12 10 6 4 6 3 1 10 5 11 12 16 16 16 15 17 17 18 14 16 9 11 11 13 14 13 10 10 7 0 4 1 7 12 12 9 9 14 15 19 13 13 13 13 11 12 12 11 11 12
16 16 15 17 17 17 3 3 8 8 5 3 8 8 6 7 7 5 2 4 6 7 6 7 6 1 1 10 17 14 1 4 11 9 14 12 4 4 4 13 15 15 11 9 22 5 17 13 17 16 16 16 18 19 20 20 15 14 8 10 15 19 19 13 10 10 7 3 7 3 1 6 14 7 8 10 14 17 20 16 14 13 13 15 15 15 13 13
17 17 17 17 18 18 4 5 6 5 5 5 9 10 7 8 4 6 3 2 6 1 5 7 2 1 3 10 13 15 10 1 2 8 9 8 13 3 10 12 10 13 9 15 15 12 1 11 17 16 14 15 14 16 11 16 17 14 10 17 14 7 7 8 7 10 3 3 15 12 7 10 20 5 11 10 14 18 18 17 16 16 16 16 16 14 14 13
17 19 19 19 14 11 3 2 3 4 4 7 8 11 11 9 5 4 7 6 2 2 3 2 9 9 11 14 9 15 17 5 2 2 11 11 11 3 4 1 6 9 9 5 11 12 4 3 2 9 14 13 13 12 13 16 14 7 10 6 1 3 5 7 9 7 1 13 16 16 14 14 18 12 13 12 15 17 12 12 12 10 12 13 12 13 13 13
17 20 20 20 11 7 5 6 4 2 8 8 9 11 10 3 3 5 10 4 3 4 1 0 3 9 16 19 12 14 12 9 4 8 10 6 13 12 5 3 2 4 8 11 13 14 12 5 1 3 3 9 11 9 11 13 9 12 3 9 4 4 4 3 2 2 12 12 13 19 17 17 15 16 8 11 8 12 16 15 13 13 13 13 12 12 13 14
16 21 23 16 7 8 11 8 4 5 10 11 10 10 8 6 2 8 5 3 1 3 7 5 6 5 13 15 11 13 15 9 6 11 11 9 10 16 16 12 11 10 14 13 13 10 16 18 4 3 3 10 8 9 7 9 5 6 8 10 13 4 5 9 5 9 10 13 11 15 11 7 21 22 5 6 5 10 13 12 14 14 14 13 13 16 16 16
15 20 23 14 11 6 5 7 7 8 9 10 10 6 5 5 10 6 6 1 3 1 3 2 8 10 7 13 15 12 12 16 11 13 14 11 13 14 15 15 13 13 8 13 12 12 13 13 13 5 1 8 9 14 7 7 10 9 9 13 13 11 11 12 11 5 7 8 9 3 10 17 10 17 16 10 7 10 9 12 13 16 18 19 17 16 16 6
14 19 14 11 8 7 7 10 8 13 11 8 9 6 2 5 4 12 13 4 4 0 4 1 4 7 12 13 5 12 11 9 14 11 15 11 13 11 15 18 14 12 1 8 15 11 11 15 16 11 9 9 14 15 15 12 16 18 14 15 16 11 8 11 9 14 11 8 8 6 6 5 11 11 8 21 15 11 12 11 11 11 13 14 12 7 5 7
14 15 11 10 8 9 10 10 13 14 11 9 8 8 10 8 4 7 9 6 4 1 1 2 1 8 8 10 8 8 9 7 14 10 13 13 15 15 12 13 20 12 5 7 6 7 21 13 6 25 11 18 19 14 11 9 5 10 11 5 10 17 4 13 5 9 9 4 0 6 9 4 10 2 4 4 12 15 8 12 10 11 12 10 9 10 12 11
6 5 8 8 11 9 9 10 13 13 11 8 7 10 12 9 6 4 4 5 3 3 1 2 1 8 9 7 6 10 11 5 10 10 11 15 13 15 15 6 15 20 12 12 3 10 4 15 9 13 16 15 18 14 10 11 13 9 7 17 15 9 16 2 6 1 3 4 13 4 6 9 7 14 8 4 2 12 16 14 11 13 13 10 12 12 11 10
6 7 10 11 12 11 11 12 11 11 8 8 8 8 5 2 3 2 1 5 6 6 2 2 2 5 5 7 6 8 8 2 7 11 9 10 12 14 12 9 8 15 14 12 7 1 8 8 9 15 18 16 15 14 10 17 6 6 16 9 3 5 5 6 12 3 8 12 8 11 17 10 9 14 11 9 6 11 17 15 15 15 10 11 11 9 11 11
8 8 9 11 11 11 12 13 13 9 7 8 9 11 2 3 2 4 1 3 0 4 4 4 3 5 4 4 8 9 7 12 8 11 8 13 5 12 14 10 12 13 15 10 9 3 4 4 3 7 17 14 7 8 10 11 3 7 7 9 14 7 12 6 2 15 6 9 7 13 15 16 15 15 1 12 15 13 13 16 16 15 13 12 11 13 13 14
7 8 7 10 11 13 13 12 11 10 7 8 9 10 3 6 3 5 5 5 1 4 6 4 4 2 3 3 1 3 11 12 12 10 10 8 9 13 20 10 8 15 18 16 6 2 1 7 2 5 13 8 8 11 16 15 5 2 1 6 3 3 12 10 11 2 7 13 6 12 11 12 10 13 17 11 17 14 11 12 16 18 19 19 17 15 17 16
9 8 5 12 13 12 12 13 9 9 7 13 12 10 2 5 4 4 3 6 2 3 4 5 5 4 2 5 4 3 4 12 12 8 11 4 11 5 16 16 9 12 17 17 13 8 4 3 10 1 1 10 12 10 16 15 12 6 5 9 4 6 1 3 5 14 11 7 12 8 12 5 9 11 15 12 12 10 14 15 14 15 17 19 19 19 17 10
5 4 1 11 12 11 12 11 10 12 11 6 2 6 4 5 3 5 4 4 1 3 2 3 5 7 4 3 2 4 2 1 5 8 8 5 11 7 6 12 9 14 12 16 16 11 4 3 9 2 4 12 9 11 18 17 16 14 15 16 17 15 12 13 13 4 9 11 5 7 16 5 5 8 10 13 12 12 15 17 15 15 17 18 17 16 12 11
6 4 2 13 16 17 14 12 6 4 3 9 10 6 4 6 1 1 2 3 4 3 2 3 0 3 3 3 3 5 3 5 5 5 5 9 6 10 5 16 16 13 15 14 16 14 10 4 8 13 9 11 13 7 4 7 16 19 16 15 13 10 6 10 13 6 1 8 1 5 7 11 6 10 11 14 12 14 16 15 15 15 15 14 14 14 13 9
4 2 2 18 17 20 13 10 6 7 9 7 3 1 3 1 4 3 4 2 4 4 1 2 6 4 5 4 1 3 8 3 7 10 3 4 11 12 4 16 13 14 15 7 12 14 8 4 8 9 6 6 9 3 4 4 5 14 17 14 12 15 12 10 10 4 9 6 11 8 12 7 2 2 8 10 8 9 10 11 13 12 12 14 14 12 10 6
3 5 3 7 15 13 13 14 15 13 10 2 8 5 4 3 3 2 6 7 6 3 7 4 3 6 5 3 2 4 6 3 5 10 8 7 5 6 10 8 15 11 13 9 11 10 7 5 10 10 7 7 7 6 8 3 3 9 11 14 15 11 13 9 2 1 9 15 17 12 16 6 10 4 4 4 5 5 7 6 7 10 9 10 12 11 8 7
3 3 3 4 1 12 13 5 9 12 13 11 7 8 5 4 7 8 7 6 5 3 2 4 7 3 3 3 2 2 4 10 2 5 7 1 7 3 7 9 12 12 12 10 18 13 16 10 13 14 16 14 16 15 16 11 13 5 8 12 16 18 18 11 16 10 10 6 13 13 11 9 5 2 6 6 6 6 7 9 9 11 13 13 11 9 7 7
1 4 1 3 5 4 5 2 2 6 8 8 8 9 7 7 2 7 9 6 6 4 5 2 1 5 4 3 3 4 6 6 7 2 5 3 3 4 3 3 6 8 15 14 11 11 4 7 16 18 18 20 16 10 5 9 4 11 10 14 16 20 23 20 12 14 17 6 12 12 7 2 9 11 8 6 6 10 10 9 10 11 11 10 8 9 8 10
1 2 4 3 3 3 8 5 2 6 10 7 5 3 11 16 5 1 10 5 7 8 2 5 2 4 3 7 8 5 6 4 6 6 7 6 5 5 4 5 5 9 16 17 11 8 2 11 18 19 21 21 14 12 3 7 9 10 14 19 17 17 19 20 17 18 8 10 22 6 7 8 15 18 16 7 7 9 9 8 9 10 11 12 12 11 10 9
2 1 1 3 4 7 8 10 8 5 3 10 7 2 8 9 6 8 2 10 1 5 7 1 4 11 9 12 7 7 5 8 8 8 6 8 5 4 7 6 9 6 8 7 8 14 8 11 15 15 22 19 20 19 12 7 8 10 17 16 20 21 20 22 22 20 18 16 17 12 17 17 19 20 18 10 10 10 10 9 11 14 12 9 6 7 10 11
1 2 1 1 1 1 9 0 10 8 7 12 5 6 5 8 14 14 4 1 2 4 10 11 12 15 14 9 9 8 6 4 8 11 8 6 13 6 6 3 5 8 7 5 8 3 5 16 15 18 19 20 23 22 21 19 14 13 14 17 20 22 24 25 22 22 23 20 15 18 14 20 18 18 19 13 9 8 6 5 3 5 7 8 9 11 13 13
2 2 1 2 1 1 5 7 10 11 12 12 9 13 9 9 14 8 4 6 6 11 5 12 17 12 13 10 10 13 12 12 12 10 5 10 4 6 8 10 4 3 7 5 1 4 6 10 16 12 13 19 20 19 21 20 19 22 18 16 16 17 21 24 23 22 20 22 19 17 16 16 9 13 16 7 8 6 5 3 7 8 7 8 11 13 14 15
4 2 2 2 1 1 4 4 8 12 11 10 13 11 6 11 12 6 8 4 12 6 7 19 19 7 3 8 10 16 16 14 15 16 8 10 11 6 7 3 6 2 5 2 2 3 1 4 5 9 12 14 14 17 20 18 19 23 24 21 18 16 17 17 20 19 19 21 21 22 18 15 8 11 10 7 6 11 13 11 6 5 8 12 13 14 14 15
3 3 3 2 2 3 4 4 5 5 12 14 12 8 8 11 4 6 6 7 12 14 11 16 13 10 5 7 16 19 20 17 18 15 6 4 4 1 7 5 10 8 4 7 3 3 1 3 6 9 12 14 15 16 17 19 15 19 23 20 18 18 19 16 19 20 22 20 19 19 19 15 17 15 14 11 11 12 12 13 12 12 12 13 15 14 15 15
Wind_Direction
249 246 244 243 239 241 240 241 239 237 236 233 233 230 227 229 225 221 219 211 209 211 216 206 201 201 199 192 183 187 182 193 177 198 212 233 230 239 277 271 216 346 355 356 356 25 339 350 4 350 355 12 282 63 260 87 131 63 179 122 240 201 139 245 244 221 226 147 220 172 216 111 123 298 4 60 31 69 47 76 335 23 15 289 292 132 136 148
247 249 246 240 236 236 239 238 237 237 235 232 231 229 226 225 226 221 215 212 204 205 209 206 198 190 188 187 175 176 189 200 229 227 226 218 230 243 247 264 268 288 331 349 22 38 14 342 351 352 356 1 306 232 14 254 94 136 116 105 219 194 238 211 245 269 153 239 187 202 179 148 196 139 219 105 225 119 86 24 17 52 5 43 84 116 134 150
252 247 246 241 236 234 237 238 237 233 234 233 232 229 224 224 229 224 216 209 204 200 204 211 195 181 175 173 169 159 191 240 240 241 233 221 231 226 234 246 261 260 189 263 63 117 99 306 323 350 323 286 316 214 25 258 119 232 134 234 243 216 241 264 293 267 237 193 146 128 224 140 226 140 170 159 167 121 155 147 350 131 160 146 132 131 147 158
246 250 253 249 241 236 232 235 235 235 231 232 233 233 226 216 224 230 217 209 205 193 195 209 203 180 174 170 148 134 191 279 251 234 212 203 212 224 222 228 231 219 135 182 163 95 177 21 318 199 299 203 288 75 160 258 117 266 121 188 223 224 225 277 248 258 315 125 135 171 31 129 219 200 147 160 108 255 260 221 166 196 175 174 167 156 157 165
240 243 253 248 244 239 235 231 232 234 231 227 229 232 231 226 214 228 221 214 207 198 198 203 198 188 173 163 152 125 147 294 256 193 201 187 200 214 218 219 214 190 165 154 185 37 51 32 358 332 188 240 341 41 248 261 195 104 209 187 189 99 200 259 252 231 113 46 94 57 109 210 2 56 125 148 155 219 216 223 222 181 167 161 172 175 165 172
240 236 239 248 243 240 241 233 228 229 230 228 227 227 230 227 225 230 229 212 208 199 196 200 196 196 168 150 148 154 148 222 163 226 212 184 191 200 207 208 205 171 146 141 147 29 1 346 55 10 324 152 220 170 264 207 154 248 295 223 228 195 195 249 223 263 124 45 60 74 221 51 103 252 188 170 182 232 219 211 201 174 174 177 163 160 173 178
242 233 233 238 241 240 243 244 235 229 227 226 225 220 224 222 213 220 237 227 202 205 197 197 194 186 162 138 113 175 207 244 337 242 98 204 201 193 196 194 177 151 140 139 166 206 93 128 55 234 74 230 272 186 251 248 185 206 245 194 234 208 214 205 210 213 170 123 174 194 103 142 157 201 143 187 247 230 256 248 221 172 158 141 158 180 179 185
246 239 232 236 234 233 237 240 238 236 231 224 222 221 219 222 214 220 227 236 230 203 200 199 190 179 135 127 128 220 217 219 235 300 343 226 206 199 182 152 147 143 158 185 168 186 135 164 197 209 235 168 222 171 284 262 177 208 257 217 256 196 232 231 212 197 192 199 181 124 156 238 186 202 49 249 248 258 259 8 41 139 146 166 172 182 190 193
245 246 237 235 229 223 226 236 232 232 238 224 221 219 218 217 214 213 220 227 235 218 204 208 202 164 146 130 191 207 231 207 279 308 6 46 115 141 141 147 153 164 179 179 192 186 152 236 190 196 245 225 242 274 267 155 297 207 225 192 293 250 272 245 189 209 198 151 159 133 220 259 243 139 239 228 256 230 214 89 128 140 150 171 187 188 190 197
246 250 243 234 226 223 226 226 226 232 230 226 215 212 219 218 206 210 217 220 226 227 203 202 208 173 163 132 132 226 241 153 240 255 278 73 104 134 152 150 164 166 166 186 157 158 185 209 185 214 178 271 252 245 196 151 225 191 244 251 278 262 293 326 202 224 216 193 181 189 244 247 274 163 265 279 236 100 118 142 153 148 172 183 186 193 200 198
238 243 250 248 232 222 222 217 214 225 233 224 209 212 214 220 209 207 211 218 219 222 210 200 207 169 176 173 180 221 13 195 207 230 238 111 128 144 169 163 169 171 175 159 187 182 202 209 168 111 109 216 346 288 131 222 291 315 249 282 261 286 266 261 249 262 116 273 190 170 230 250 299 170 228 238 274 163 166 180 173 190 183 190 193 192 199 204
229 224 232 243 242 221 214 213 212 215 225 220 211 211 208 211 214 200 210 215 217 216 212 202 190 177 179 192 209 210 202 160 213 210 229 145 163 177 164 166 178 181 172 173 201 201 199 204 119 156 204 122 244 319 294 238 192 244 225 283 301 324 294 251 210 219 172 255 171 162 124 285 220 220 233 234 251 166 159 183 194 204 206 199 196 198 198 209
235 226 217 223 239 232 213 215 215 216 217 216 208 204 210 210 207 203 210 225 223 212 210 198 177 241 187 208 220 193 236 207 40 351 264 184 152 177 173 174 186 192 188 184 201 201 197 180 139 187 239 40 212 169 257 39 278 304 177 183 293 293 274 251 216 180 171 238 163 128 253 238 238 237 238 235 237 257 268 250 211 207 212 213 202 203 211 219
241 233 226 216 222 238 225 211 209 212 230 233 206 203 195 204 209 208 209 207 209 213 204 198 178 185 205 235 118 199 251 149 313 336 293 132 159 187 178 174 179 207 238 209 222 197 180 148 127 178 49 178 243 300 350 346 19 213 257 105 214 241 252 249 187 172 177 212 173 151 235 253 254 254 243 241 218 214 237 245 229 224 215 211 218 212 214 219
231 231 224 212 209 219 229 216 204 202 202 234 244 197 189 195 202 206 215 214 205 192 214 190 194 203 209 249 72 245 226 281 226 221 299 143 156 144 187 172 186 195 201 217 60 80 115 114 99 215 243 240 248 307 312 308 347 266 134 229 232 200 275 276 234 157 180 249 188 140 248 238 243 249 241 231 222 215 237 247 237 232 227 216 213 219 220 222
219 217 211 207 206 208 223 224 210 198 196 201 226 226 177 183 205 198 200 206 212 228 190 192 208 222 32 224 236 121 147 205 228 214 262 141 175 187 173 184 186 188 186 199 103 100 60 89 168 176 227 59 175 173 270 354 287 260 207 250 212 207 213 309 243 194 188 152 238 187 224 280 281 249 237 233 204 215 234 249 247 238 234 227 221 217 222 227
210 206 198 193 193 203 215 231 220 206 199 194 203 213 182 179 202 203 214 215 225 213 173 221 169 85 205 356 13 172 172 213 123 187 241 186 143 129 160 165 185 178 146 72 108 83 354 119 126 322 146 209 145 146 195 240 243 234 211 225 206 194 184 222 300 227 208 156 202 241 233 226 243 274 251 256 216 216 231 246 247 240 235 231 226 223 222 222
217 199 190 179 171 175 176 206 245 237 213 190 194 140 103 81 16 187 161 92 93 107 220 198 83 67 272 249 206 212 198 163 162 182 210 138 140 141 157 185 161 157 142 130 294 160 262 157 150 210 153 193 185 176 198 217 210 205 202 229 246 228 192 200 162 249 155 241 204 217 233 237 253 254 254 236 207 207 227 237 240 238 231 233 230 227 226 224
234 207 188 186 158 163 169 179 222 234 227 208 145 93 100 86 48 253 168 132 134 136 207 194 166 201 177 223 198 313 159 160 170 172 190 166 141 133 67 30 191 154 181 169 212 154 125 99 183 202 199 184 204 202 207 211 139 207 208 222 231 219 226 210 243 262 181 210 223 216 226 224 246 254 245 251 226 201 229 245 266 260 246 238 234 232 231 229
251 210 194 183 168 162 169 177 194 207 190 159 128 86 80 103 74 264 225 188 216 211 342 161 191 245 15 2 155 205 128 162 165 202 165 149 121 136 182 143 333 188 179 186 166 193 139 191 207 206 209 203 206 211 221 196 182 209 207 220 227 231 254 234 216 243 205 218 229 225 232 219 229 241 238 235 241 242 250 253 244 246 243 238 237 235 234 232
258 214 199 185 179 177 175 177 183 183 191 181 148 153 188 164 153 213 175 240 226 243 264 359 248 213 196 14 30 131 123 191 194 188 175 128 115 139 180 160 213 209 197 185 162 93 157 203 219 216 220 208 212 207 222 240 245 186 197 212 229 216 234 212 220 250 228 188 261 234 238 234 228 241 244 238 237 238 239 246 244 241 239 238 233 236 234 232
237 238 209 196 191 189 185 174 168 163 170 134 171 167 38 202 98 199 113 216 247 242 275 248 12 295 332 51 252 245 108 148 198 177 199 156 168 182 190 190 174 216 182 185 132 160 186 204 211 212 203 208 219 206 210 220 229 220 206 211 234 231 237 293 246 238 236 203 254 226 244 244 234 237 247 232 225 227 228 230 232 226 236 237 235 240 247 252
245 237 222 209 196 199 190 171 137 135 127 142 189 194 296 229 239 33 102 149 247 199 212 235 236 255 262 349 304 354 192 182 182 183 186 170 159 205 148 189 200 202 213 175 187 171 202 215 217 202 204 203 206 215 217 218 226 225 225 214 228 170 163 246 260 231 256 209 231 200 243 249 241 238 243 243 221 228 227 227 231 223 228 234 235 231 233 243
239 231 218 219 198 159 186 158 159 128 150 166 182 187 195 1 102 42 61 166 245 235 192 203 219 231 226 214 247 180 164 211 176 194 193 176 176 165 196 186 204 210 220 218 193 195 207 207 210 204 206 201 213 200 216 216 222 221 222 223 229 176 191 200 247 233 243 252 243 332 284 268 223 238 250 256 229 223 231 236 242 246 235 239 244 247 235 236
236 226 215 209 202 132 138 133 117 186 145 165 209 209 118 28 112 144 96 328 325 311 322 305 174 250 217 86 153 129 177 286 212 182 183 180 169 153 209 173 194 221 223 218 230 217 224 226 133 196 204 208 213 212 213 219 231 224 222 217 220 189 218 232 219 189 277 255 224 169 277 257 208 216 227 234 240 220 217 218 231 234 233 235 239 238 243 243
243 222 207 184 189 168 158 161 190 144 157 187 190 199 89 85 94 120 95 77 276 240 140 222 127 247 123 220 110 193 139 232 165 195 170 203 189 179 154 213 173 217 214 216 227 233 227 204 174 194 203 203 204 211 211 203 229 232 218 205 218 211 214 207 218 187 236 234 270 173 228 269 116 210 213 218 233 238 200 217 222 225 229 228 229 230 236 239
240 225 204 185 188 157 152 217 147 126 162 220 171 143 120 92 54 51 156 236 270 164 175 226 180 263 175 162 154 120 210 212 103 138 186 218 193 276 189 188 186 232 206 181 239 224 174 202 184 195 196 202 203 214 211 196 210 234 206 178 189 214 214 213 212 214 238 296 314 245 207 255 263 235 217 203 218 238 227 223 222 225 224 228 230 226 227 233
233 225 208 188 188 164 212 142 135 167 173 180 146 132 119 115 97 77 65 206 239 119 174 187 206 242 68 162 145 184 270 135 162 196 185 180 203 253 252 192 196 196 192 165 222 130 195 192 193 192 191 200 209 209 204 192 205 228 201 137 208 205 212 210 203 225 241 259 258 217 250 268 258 223 196 198 217 227 237 224 220 225 225 232 233 232 230 229
228 220 210 196 185 180 179 141 162 164 194 155 142 130 113 84 80 117 180 209 250 76 257 182 104 9 104 152 174 185 212 67 261 162 170 154 195 115 199 219 209 209 198 193 217 224 342 199 202 198 192 209 211 212 201 186 210 221 134 176 214 209 215 202 202 218 238 189 238 228 166 240 267 176 195 204 204 221 228 229 225 221 220 228 235 239 242 243
225 214 208 199 186 187 199 67 149 218 136 128 125 125 109 97 73 174 192 238 95 286 119 242 189 181 156 171 172 190 200 193 139 145 154 171 167 131 299 186 199 213 214 235 239 236 227 336 308 205 205 205 207 205 193 202 210 98 135 164 108 137 220 216 218 210 114 228 229 228 200 211 265 231 193 186 208 212 214 232 234 229 236 238 237 235 236 238
223 209 205 197 189 172 147 155 224 125 130 128 125 109 96 36 139 183 225 218 31 233 64 330 206 166 167 173 175 200 195 188 191 153 188 186 181 166 152 240 114 218 221 212 228 240 250 270 184 262 248 216 195 193 200 199 185 147 164 178 72 290 29 330 314 133 219 233 224 223 217 204 232 260 178 206 209 202 205 216 218 221 222 225 226 225 230 232
225 207 200 197 163 141 176 161 170 135 135 141 116 121 139 171 191 212 200 25 299 231 155 174 214 180 181 182 187 169 187 187 191 180 188 186 208 188 183 197 153 197 203 186 218 215 236 229 174 214 208 190 176 186 208 190 160 209 164 175 197 177 168 228 153 218 215 227 217 222 203 242 230 244 169 253 237 203 206 203 207 216 224 223 230 233 234 233
222 208 198 191 163 156 159 131 130 125 119 120 128 141 147 186 203 191 254 22 226 108 259 241 182 189 182 172 207 168 184 195 167 207 179 192 208 212 198 201 184 198 201 190 211 206 246 234 210 203 243 202 190 193 151 196 179 179 182 182 193 199 194 219 209 227 233 236 247 232 184 233 250 268 234 229 203 224 224 218 211 214 220 225 226 231 240 244
220 204 196 183 164 158 162 134 135 124 126 141 146 143 161 208 228 172 215 190 217 326 291 70 209 190 165 201 167 187 180 203 171 196 187 189 203 223 205 207 204 202 106 178 202 191 223 223 216 179 224 158 208 210 187 193 177 196 187 185 198 190 199 210 206 216 214 215 217 160 124 233 165 243 169 216 202 213 210 216 222 227 233 232 232 254 277 252
220 206 177 166 159 160 146 139 140 137 130 150 163 168 188 204 226 177 213 219 261 177 202 290 199 179 193 203 204 191 189 184 199 177 200 193 199 204 209 200 202 202 160 186 210 180 222 247 146 194 192 174 201 205 197 173 187 203 199 209 207 214 171 236 196 227 212 202 53 192 205 184 215 259 312 264 225 208 183 215 214 230 239 244 254 243 235 233
180 208 171 168 160 168 148 144 141 133 137 162 194 192 196 188 206 162 220 185 209 109 253 40 87 205 201 191 213 201 217 203 184 194 212 208 208 209 212 190 199 190 184 202 142 214 173 235 159 189 192 200 199 192 205 158 208 172 179 212 211 192 215 232 311 325 76 155 230 131 264 263 329 282 264 245 149 211 206 201 199 217 223 220 227 226 220 224
183 159 182 172 164 156 152 149 144 132 134 162 203 227 213 246 189 136 237 169 202 138 72 218 269 190 212 198 197 194 204 128 214 193 216 177 226 209 208 222 179 201 207 184 242 266 201 241 178 176 200 210 196 196 189 198 200 136 212 195 71 35 83 172 222 152 210 217 220 179 222 221 203 261 199 205 181 213 212 204 208 215 214 221 228 229 226 222
165 169 162 168 163 152 149 149 136 133 135 170 210 220 57 202 237 172 182 155 113 162 189 145 274 172 253 212 211 189 171 190 175 192 215 180 285 183 204 206 191 202 200 203 207 245 110 294 275 201 189 200 178 182 219 237 65 224 206 151 186 171 223 193 113 223 200 215 224 217 216 224 196 231 351 196 203 213 213 217 222 227 227 230 233 237 241 236
157 148 174 166 154 152 151 146 137 139 143 187 214 220 222 223 224 206 187 144 93 126 194 229 185 248 216 225 314 218 182 200 178 200 185 203 216 186 198 179 208 191 194 192 193 222 231 213 285 207 198 156 159 160 213 201 167 344 43 263 220 151 224 185 201 296 225 233 196 234 200 236 191 224 226 196 216 200 199 206 217 221 224 229 232 232 233 236
157 156 174 148 158 148 140 126 128 146 168 199 201 217 157 231 253 258 230 172 244 147 217 210 198 234 221 230 171 196 258 218 200 206 204 166 215 185 197 186 187 185 192 184 203 168 259 171 232 12 244 154 207 185 208 192 180 154 202 202 215 225 27 175 207 211 214 228 226 228 227 199 201 204 226 210 215 194 196 203 208 211 218 224 226 229 235 242
149 127 122 149 142 134 134 138 153 173 191 214 230 230 197 220 198 231 216 263 241 27 180 171 164 193 201 196 270 161 158 240 233 211 207 212 191 224 208 191 162 196 171 184 201 187 200 174 219 159 207 209 209 193 203 196 195 195 194 204 201 194 197 201 231 204 223 222 219 215 244 235 238 184 194 202 202 184 198 201 204 209 215 221 226 235 237 239
138 142 215 144 140 143 148 161 182 172 200 194 206 183 204 223 321 276 185 222 220 240 29 102 278 185 217 215 163 171 176 203 225 271 219 216 225 221 209 191 192 173 171 193 198 193 187 165 208 223 219 207 218 212 252 216 199 204 201 217 207 222 215 218 227 209 42 234 194 250 261 239 205 202 190 203 192 193 198 196 201 209 214 220 227 229 232 219
117 123 118 146 156 151 157 185 152 165 207 220 55 142 231 291 211 174 189 197 220 179 119 200 195 199 245 190 186 159 178 235 186 215 284 248 252 229 251 196 184 185 185 200 184 207 143 188 209 248 275 266 255 327 318 335 226 220 222 218 200 213 205 229 237 188 209 190 214 223 236 230 222 189 203 212 206 196 202 194 198 208 213 220 224 228 226 210
77 104 99 155 162 159 167 186 184 192 209 100 197 234 160 220 160 195 205 198 192 162 202 199 320 223 249 166 168 191 161 244 203 205 233 202 255 280 273 244 198 201 177 190 192 158 207 185 200 218 232 234 246 249 273 319 287 223 214 210 216 212 207 218 267 9 227 206 210 207 233 204 235 194 247 211 224 216 217 229 206 211 223 223 225 228 219 212
103 71 49 358 280 177 193 187 190 187 197 195 192 215 204 222 215 201 188 213 205 210 168 241 198 162 206 143 197 134 200 205 282 217 239 250 256 239 307 312 246 232 210 184 193 154 210 167 186 214 209 203 212 202 211 206 215 241 230 208 204 204 210 208 232 208 243 194 205 220 233 219 249 314 231 210 200 223 228 219 213 208 212 219 225 225 210 193
109 126 32 351 18 208 241 17 191 198 194 185 204 219 203 233 260 204 181 239 191 209 201 180 121 151 182 152 187 178 208 237 217 226 169 225 246 281 226 55 323 267 255 224 199 165 221 185 205 211 211 226 228 238 229 202 149 204 209 215 208 208 208 209 219 225 226 213 236 225 228 304 274 263 251 228 183 203 216 219 214 222 232 230 220 217 202 196
287 96 143 206 28 296 208 198 182 161 201 175 208 163 205 222 210 337 181 232 206 202 221 214 188 166 231 200 221 217 193 202 229 228 211 216 207 232 201 135 291 276 273 271 227 209 189 208 214 218 223 232 222 220 131 158 183 199 203 214 214 214 212 213 214 228 214 229 243 191 208 192 233 243 239 207 227 217 212 210 207 216 219 212 211 209 204 198
91 299 86 215 169 193 184 220 195 168 132 164 223 123 218 221 204 225 174 222 115 182 202 330 193 212 197 196 202 230 179 204 177 221 226 233 264 243 291 216 209 231 306 282 223 210 207 227 221 220 230 229 231 235 213 198 195 204 213 211 212 212 213 218 221 224 215 222 236 210 208 212 227 236 244 213 210 215 209 210 212 209 209 206 193 188 192 198
73 337 240 287 210 244 214 292 177 193 189 179 226 220 230 194 212 214 190 114 162 227 193 227 219 217 214 198 186 231 192 185 221 223 211 210 211 208 245 294 229 196 192 261 248 259 212 227 214 214 227 226 230 230 230 225 216 221 221 216 216 211 216 218 223 221 220 228 226 232 225 222 218 235 242 233 214 216 220 211 219 217 212 193 187 189 193 194
14 7 326 305 330 197 198 161 180 193 219 195 206 219 215 211 224 210 201 179 203 224 181 222 232 213 210 204 201 223 219 210 220 219 208 220 238 184 236 222 237 89 140 198 237 278 234 223 214 223 226 233 232 228 231 224 216 227 221 219 226 231 225 218 221 224 226 235 233 234 235 240 232 233 239 226 214 227 246 207 213 210 192 183 190 195 195 195
303 283 316 350 0 256 134 161 180 197 210 207 222 221 206 218 233 193 230 204 219 213 175 223 231 230 226 217 222 232 234 227 234 234 211 181 222 195 196 301 185 199 135 161 177 307 264 320 257 215 221 237 225 227 233 233 228 227 226 217 215 215 235 229 226 218 217 221 222 230 234 235 234 243 246 233 207 213 223 225 218 229 205 193 192 199 200 197
277 247 248 237 242 202 183 182 175 158 217 211 212 207 213 225 200 127 253 228 227 221 209 220 227 215 222 206 225 229 231 224 234 240 231 229 262 280 212 226 171 173 186 195 150 195 195 308 237 221 226 226 220 216 222 230 238 239 228 218 210 217 218 224 234 232 227 215 218 219 230 227 225 226 234 238 223 218 213 214 218 215 208 194 193 199 203 201